• In Hungary
  • List of Countries
  • For 7 days
  • Water Temperature
  • Satellite Maps
  • Weather Map
  • News
  • Weather Widgets
  • user-avatar
    Login

    Hourly Weather Uige

    Today, 22 October, Monday

    Time Temperature Precipitation Wind Pressure Humidity
    00:00 +23°C° 0.5 mm 1 mps 690 mmHg 94%
    01:00 +23°C° 0 mm 1 mps 690 mmHg 96%
    02:00 +23°C° 1.3 mm 1 mps 690 mmHg 96%
    03:00 +22°C° 1.3 mm 1 mps 690 mmHg 97%
    04:00 +22°C° 1.3 mm 1 mps 690 mmHg 98%
    05:00 +23°C° 1.2 mm 1 mps 690 mmHg 96%
    06:00 +23°C° 1.2 mm 1 mps 690 mmHg 94%
    07:00 +22°C° 1.2 mm 0 mps 690 mmHg 93%
    08:00 +23°C° 1.7 mm 0 mps 691 mmHg 87%
    09:00 +25°C° 1.7 mm 0 mps 691 mmHg 81%
    10:00 +28°C° 1.7 mm 1 mps 691 mmHg 75%
    11:00 +29°C° 1.4 mm 1 mps 691 mmHg 72%
    12:00 +30°C° 1.4 mm 1 mps 690 mmHg 70%
    13:00 +30°C° 1.4 mm 1 mps 690 mmHg 68%
    14:00 +29°C° 2.3 mm 1 mps 689 mmHg 73%
    15:00 +28°C° 2.3 mm 1 mps 689 mmHg 79%
    16:00 +27°C° 2.3 mm 1 mps 688 mmHg 84%
    17:00 +26°C° 0.6 mm 1 mps 689 mmHg 86%
    18:00 +25°C° 0.6 mm 1 mps 689 mmHg 89%
    19:00 +24°C° 0.6 mm 1 mps 689 mmHg 91%
    20:00 +23°C° 0.4 mm 1 mps 690 mmHg 91%
    21:00 +23°C° 0.4 mm 1 mps 690 mmHg 91%
    22:00 +23°C° 0.4 mm 1 mps 691 mmHg 92%
    23:00 +23°C° 0.4 mm 1 mps 691 mmHg 92%

    Tomorrow, 23 October, Tuesday

    Time Temperature Precipitation Wind Pressure Humidity
    00:00 +23°C° 0.4 mm 1 mps 691 mmHg 92%
    01:00 +23°C° 0.4 mm 1 mps 691 mmHg 92%
    02:00 +22°C° 0.1 mm 1 mps 690 mmHg 92%
    03:00 +22°C° 0.1 mm 1 mps 690 mmHg 92%
    04:00 +22°C° 0.1 mm 1 mps 690 mmHg 92%
    05:00 +22°C° 0.2 mm 1 mps 691 mmHg 91%
    06:00 +23°C° 0.2 mm 1 mps 691 mmHg 90%
    07:00 +23°C° 0.2 mm 1 mps 692 mmHg 89%
    08:00 +24°C° 0.6 mm 1 mps 692 mmHg 84%
    09:00 +26°C° 0.6 mm 2 mps 693 mmHg 80%
    10:00 +27°C° 0.6 mm 2 mps 693 mmHg 75%
    11:00 +27°C° 1.4 mm 2 mps 693 mmHg 78%
    12:00 +26°C° 1.4 mm 2 mps 693 mmHg 80%
    13:00 +26°C° 1.4 mm 1 mps 692 mmHg 82%
    14:00 +25°C° 2.5 mm 1 mps 692 mmHg 85%
    15:00 +24°C° 2.5 mm 1 mps 691 mmHg 89%
    16:00 +23°C° 2.5 mm 1 mps 691 mmHg 92%
    17:00 +23°C° 0.9 mm 1 mps 691 mmHg 93%
    18:00 +22°C° 0.9 mm 1 mps 691 mmHg 94%
    19:00 +22°C° 0.9 mm 1 mps 692 mmHg 95%
    20:00 +22°C° 0.3 mm 1 mps 692 mmHg 94%
    21:00 +22°C° 0.3 mm 1 mps 692 mmHg 93%
    22:00 +22°C° 0.3 mm 1 mps 692 mmHg 92%
    23:00 +22°C° 0.1 mm 1 mps 692 mmHg 91%

    Day after tomorrow, 24 October, Wednesday

    Time Temperature Precipitation Wind Pressure Humidity
    00:00 +21°C° 0.1 mm 1 mps 692 mmHg 91%
    01:00 +21°C° 0.1 mm 1 mps 691 mmHg 90%
    02:00 +21°C° 0 mm 1 mps 691 mmHg 89%
    03:00 +21°C° 0 mm 1 mps 691 mmHg 89%
    04:00 +21°C° 0 mm 1 mps 690 mmHg 88%
    05:00 +22°C° 0 mm 1 mps 691 mmHg 87%
    06:00 +22°C° 0 mm 1 mps 691 mmHg 86%
    07:00 +22°C° 0 mm 1 mps 692 mmHg 85%
    08:00 +25°C° 0 mm 1 mps 692 mmHg 76%
    09:00 +27°C° 0 mm 1 mps 693 mmHg 66%
    10:00 +29°C° 0 mm 1 mps 694 mmHg 57%
    11:00 +31°C° 0.1 mm 1 mps 693 mmHg 51%
    12:00 +33°C° 0.1 mm 1 mps 692 mmHg 46%
    13:00 +34°C° 0.1 mm 1 mps 692 mmHg 41%
    14:00 +33°C° 0 mm 1 mps 691 mmHg 44%
    15:00 +30°C° 0 mm 0 mps 690 mmHg 48%
    16:00 +29°C° 0 mm 0 mps 689 mmHg 51%
    17:00 +29°C° 0.1 mm 1 mps 690 mmHg 57%
    18:00 +27°C° 0.1 mm 1 mps 690 mmHg 63%
    19:00 +26°C° 0.1 mm 1 mps 690 mmHg 69%
    20:00 +25°C° 0.5 mm 1 mps 690 mmHg 75%
    21:00 +24°C° 0.5 mm 1 mps 691 mmHg 82%
    22:00 +23°C° 0.5 mm 1 mps 691 mmHg 88%
    23:00 +23°C° 0.5 mm 1 mps 691 mmHg 90%

    25 October, Thursday

    Time Temperature Precipitation Wind Pressure Humidity
    00:00 +23°C° 0.5 mm 1 mps 691 mmHg 92%
    01:00 +22°C° 0.5 mm 1 mps 690 mmHg 94%
    02:00 +22°C° 0.1 mm 1 mps 690 mmHg 94%
    03:00 +22°C° 0.1 mm 1 mps 690 mmHg 94%
    04:00 +22°C° 0.1 mm 1 mps 690 mmHg 94%
    05:00 +22°C° 0.5 mm 1 mps 691 mmHg 94%
    06:00 +22°C° 0.5 mm 1 mps 691 mmHg 94%
    07:00 +22°C° 0.5 mm 1 mps 692 mmHg 94%
    08:00 +23°C° 1.5 mm 1 mps 692 mmHg 93%
    09:00 +23°C° 1.5 mm 1 mps 692 mmHg 92%
    10:00 +24°C° 1.5 mm 1 mps 692 mmHg 91%
    11:00 +25°C° 0.3 mm 1 mps 691 mmHg 87%
    12:00 +26°C° 0.3 mm 1 mps 690 mmHg 83%
    13:00 +24°C° 0.3 mm 0 mps 690 mmHg 78%
    14:00 +25°C° 0.2 mm 0 mps 689 mmHg 75%
    15:00 +26°C° 0.2 mm 0 mps 689 mmHg 72%
    16:00 +26°C° 0.2 mm 0 mps 689 mmHg 69%
    17:00 +27°C° 0.1 mm 1 mps 689 mmHg 74%
    18:00 +25°C° 0.1 mm 1 mps 689 mmHg 80%
    19:00 +24°C° 0.1 mm 1 mps 689 mmHg 85%
    20:00 +23°C° 0.3 mm 1 mps 690 mmHg 87%
    21:00 +23°C° 0.3 mm 1 mps 690 mmHg 88%
    22:00 +22°C° 0.3 mm 1 mps 691 mmHg 89%
    23:00 +22°C° 0.3 mm 1 mps 690 mmHg 91%

    26 October, Friday

    Time Temperature Precipitation Wind Pressure Humidity
    00:00 +22°C° 0.3 mm 1 mps 690 mmHg 92%
    01:00 +22°C° 0.3 mm 1 mps 690 mmHg 93%
    02:00 +21°C° 0.6 mm 1 mps 690 mmHg 94%
    03:00 +21°C° 0.6 mm 1 mps 690 mmHg 95%
    04:00 +19°C° 0.6 mm 0 mps 690 mmHg 96%
    05:00 +22°C° 0.1 mm 1 mps 690 mmHg 94%
    06:00 +23°C° 0.1 mm 1 mps 691 mmHg 92%
    07:00 +23°C° 0.1 mm 1 mps 692 mmHg 90%
    08:00 +26°C° 0.6 mm 1 mps 692 mmHg 80%
    09:00 +28°C° 0.6 mm 1 mps 692 mmHg 71%
    10:00 +30°C° 0.6 mm 1 mps 693 mmHg 61%
    11:00 +31°C° 0.3 mm 1 mps 692 mmHg 57%
    12:00 +32°C° 0.3 mm 1 mps 691 mmHg 52%
    13:00 +33°C° 0.3 mm 1 mps 690 mmHg 48%
    14:00 +33°C° 0.1 mm 1 mps 690 mmHg 49%
    15:00 +32°C° 0.1 mm 1 mps 690 mmHg 50%
    16:00 +32°C° 0.1 mm 1 mps 689 mmHg 51%
    17:00 +29°C° 0 mm 0 mps 690 mmHg 56%
    18:00 +27°C° 0 mm 0 mps 690 mmHg 61%
    19:00 +25°C° 0 mm 0 mps 690 mmHg 66%
    20:00 +24°C° 0.8 mm 0 mps 691 mmHg 73%
    21:00 +23°C° 0.8 mm 0 mps 691 mmHg 81%
    22:00 +22°C° 0.8 mm 0 mps 691 mmHg 88%
    23:00 +23°C° 1.2 mm 1 mps 690 mmHg 91%

    27 October, Saturday

    Time Temperature Precipitation Wind Pressure Humidity
    00:00 +23°C° 1.2 mm 1 mps 690 mmHg 93%
    01:00 +23°C° 1.2 mm 1 mps 690 mmHg 96%
    02:00 +22°C° 0.9 mm 1 mps 690 mmHg 96%
    03:00 +22°C° 0.9 mm 1 mps 690 mmHg 97%
    04:00 +22°C° 0.9 mm 1 mps 690 mmHg 97%
    05:00 +21°C° 0.3 mm 0 mps 691 mmHg 96%
    06:00 +21°C° 0.3 mm 0 mps 691 mmHg 94%
    07:00 +22°C° 0.3 mm 0 mps 692 mmHg 93%
    08:00 +23°C° 0.4 mm 0 mps 692 mmHg 87%
    09:00 +25°C° 0.4 mm 0 mps 692 mmHg 81%
    10:00 +28°C° 0.4 mm 1 mps 692 mmHg 74%
    11:00 +30°C° 0.5 mm 1 mps 692 mmHg 68%
    12:00 +29°C° 0.5 mm 0 mps 691 mmHg 61%
    13:00 +31°C° 0.5 mm 0 mps 690 mmHg 54%
    14:00 +32°C° 0.4 mm 1 mps 690 mmHg 57%
    15:00 +31°C° 0.4 mm 1 mps 690 mmHg 60%
    16:00 +31°C° 0.4 mm 1 mps 689 mmHg 62%
    17:00 +29°C° 0.1 mm 1 mps 689 mmHg 68%
    18:00 +27°C° 0.1 mm 1 mps 690 mmHg 74%
    19:00 +26°C° 0.1 mm 1 mps 690 mmHg 79%
    20:00 +25°C° 0.2 mm 1 mps 690 mmHg 82%
    21:00 +24°C° 0.2 mm 1 mps 690 mmHg 86%
    22:00 +24°C° 0.2 mm 1 mps 691 mmHg 89%
    23:00 +23°C° 1.1 mm 1 mps 691 mmHg 92%

    28 October, Sunday

    Time Temperature Precipitation Wind Pressure Humidity
    00:00 +23°C° 1.1 mm 1 mps 691 mmHg 95%
    01:00 +20°C° 1.1 mm 0 mps 691 mmHg 97%
    02:00 +22°C° 1.7 mm 1 mps 691 mmHg 97%
    03:00 +22°C° 1.7 mm 1 mps 691 mmHg 97%
    04:00 +22°C° 1.7 mm 1 mps 690 mmHg 97%
    05:00 +23°C° 0 mm 1 mps 691 mmHg 97%
    06:00 +23°C° 0 mm 1 mps 691 mmHg 96%
    07:00 +23°C° 0 mm 1 mps 692 mmHg 95%
    08:00 +24°C° 0 mm 0 mps 692 mmHg 84%
    09:00 +26°C° 0 mm 0 mps 692 mmHg 73%
    10:00 +29°C° 0 mm 0 mps 693 mmHg 62%
    11:00 +32°C° 0.1 mm 1 mps 692 mmHg 57%
    12:00 +33°C° 0.1 mm 1 mps 691 mmHg 53%
    13:00 +34°C° 0.1 mm 1 mps 690 mmHg 49%
    14:00 +32°C° 1 mm 1 mps 690 mmHg 58%
    15:00 +30°C° 1 mm 1 mps 689 mmHg 68%
    16:00 +28°C° 1 mm 1 mps 688 mmHg 77%
    17:00 +27°C° 0.6 mm 1 mps 689 mmHg 81%
    18:00 +26°C° 0.6 mm 1 mps 689 mmHg 84%
    19:00 +25°C° 0.6 mm 1 mps 689 mmHg 88%
    20:00 +24°C° 0.2 mm 1 mps 690 mmHg 90%
    21:00 +24°C° 0.2 mm 1 mps 690 mmHg 91%
    22:00 +23°C° 0.2 mm 1 mps 690 mmHg 93%
    23:00 +23°C° 2.5 mm 1 mps 690 mmHg 95%
    Show more